Вернуться в каталог

STARLINK-32387

АктивенСвязьVLEO
NORAD 61704·PAYLOAD·🇺🇸 United States

Запущен Oct 30, 2024 с Vandenberg Space Force Base

Loading…

Ближайшие Пролёты (ближайшие 24 часа)

TLE

СвежийSource: CelesTrak SupGP

Эпоха: Sep 14, 2026, 22:40 UTC

1 61704C 24195T   26257.94493056 -.00008557  00000+0 -25283-3 0  2577
2 61704  53.1592 351.6363 0001142  82.1861 250.4267 15.34394052    19

Отслеживайте STARLINK-32387 в реальном времени с AllMySat

Download on the App Store